Weather Roundup
Issued by NWS

Home | Current Version | Previous Version | Graphics & Text | Print | Product List | Glossary Off
Versions: 1 2 3 4 5 6 7 8 9 10 11 12 13 14 15 16 17 18 19 20 21 22 23 24 25 26 27 28 29 30 31 32 33 34 35 36 37 38 39 40 41 42 43 44 45 46 47 48 49 50

377
NZUS93 KARX 271559
HRRWXR

CURRENT HOURLY OBSERVATIONS ACROSS
MUCH OF THE UPPER MISSISSIPPI VALLEY
NATIONAL WEATHER SERVICE LA CROSSE WI
1100 AM CDT FRI MAY 27 2016


...SOUTHEAST MINNESOTA...


CITY           SKY/WX    TMP DP  RH WIND       PRES   REMARKS
ROCHESTER      CLOUDY    65  61  87 NE10      29.82F
ROCHESTER/MAYO CLOUDY    64  61  89 N5        29.83F
WINONA         CLOUDY    70  61  73 CALM      29.82R
AUSTIN         CLOUDY    63  59  88 NE7       29.80F
ALBERT LEA     LGT RAIN  63  63 100 SE3       29.80F
DODGE CENTER   CLOUDY    64  61  88 E6        29.82F
PRESTON        CLOUDY    64  59  83 NE5       29.83F
OWATONNA       RAIN      63  61  94 SE6       29.82F
FARIBAULT      CLOUDY    63  61  94 SE7       29.83F
$$

...ELSEWHERE IN MINNESOTA...


CITY           SKY/WX    TMP DP  RH WIND       PRES   REMARKS
MINNEAPOLIS    LGT RAIN  64  60  87 SE12      29.83S FOG
INTNL FALLS    MOSUNNY   69  55  60 NE3       29.84F
DULUTH         LGT RAIN  62  52  69 SE7       29.89R
RED WING       RAIN      64  61  88 CALM      29.80F
REDWOOD FALLS  LGT RAIN  66  58  75 S14       29.78R
MANKATO        CLOUDY    64  59  82 SE12      29.79F
WORTHINGTON    CLOUDY    63  57  81 S5        29.79F
FAIRMONT       CLOUDY    64  57  77 SE8       29.78F
$$

...SOUTHWEST WISCONSIN...


CITY           SKY/WX    TMP DP  RH WIND       PRES   REMARKS
LA CROSSE      MOSUNNY   74  64  71 CALM      29.80F
PRAIRIE DU CHI CLOUDY    72  60  67 SE7       29.81S
BOSCOBEL       PTSUNNY   76  62  62 S9G17     29.82F
LONE ROCK      NOT AVBL
PLATTEVILLE    CLOUDY    70  65  84 S12       29.85F
FORT MC COY    PTSUNNY   73  62  68 SE12      29.83S
MAUSTON-NEW LI CLOUDY    72  65  80 SE6       29.84F
VIROQUA        FAIR      72  63  73 SE14G21   29.83S
WIS DELLS      CLOUDY    73  63  71 SE7       29.87S
$$

...ELSEWHERE IN WISCONSIN...


CITY           SKY/WX    TMP DP  RH WIND       PRES   REMARKS
MILWAUKEE      CLOUDY    73  67  81 SE6       29.88S
MADISON        PTSUNNY   72  62  71 S8        29.86S
GREEN BAY      CLOUDY    73  63  70 NE8       29.87R
EAU CLAIRE     NOT AVBL
BLACK RVR FLS  PTSUNNY   70  59  69 E5        29.82F
MEDFORD        CLOUDY    64  60  86 E6        29.86S
WAUSAU         CLOUDY    69  60  73 CALM      29.87R
WIS RAPIDS     PTSUNNY   74  60  61 E10       29.86F
MARSHFIELD     CLOUDY    70  60  70 E12       29.85S
RICE LAKE      CLOUDY    65  59  80 CALM      29.86F
$$

...NORTHEAST IOWA...


CITY           SKY/WX    TMP DP  RH WIND       PRES   REMARKS
WATERLOO       CLOUDY    68  61  78 SE8       29.77F
DUBUQUE        CLOUDY    69  64  84 SE15      29.83F
DECORAH        CLOUDY    68  66  94 VRB7      29.80F
MASON CITY     RAIN      63  61  93 CALM      29.81S FOG
CHARLES CITY   CLOUDY    66  64  94 E9        29.79F
OELWEIN        CLOUDY    68  64  88 SE10      29.80F
$$

...ELSEWHERE IN IOWA...


CITY           SKY/WX    TMP DP  RH WIND       PRES   REMARKS
DES MOINES     DRIZZLE   65  62  90 E5        29.74F FOG
IOWA CITY      PTSUNNY   74  67  78 SE10      29.79S
FORT DODGE     CLOUDY    63  59  88 SE7       29.80R
MARSHALLTOWN   CLOUDY    65  64  97 SE12      29.76F
CEDAR RAPIDS   PTSUNNY   73  68  84 SE8       29.77F
$$

...NORTHERN ILLINOIS...


CITY           SKY/WX    TMP DP  RH WIND       PRES   REMARKS
CHICAGO-OHARE  PTSUNNY   74  66  76 S10       29.90R
CHICAGO-MIDWAY CLOUDY    77  64  64 S13       29.90S
MOLINE         PTSUNNY   74  66  76 SE15G23   29.80S
ROCKFORD       CLOUDY    77  65  66 S12       29.89F
PEORIA         CLOUDY    73  65  75 S14       29.86F
$$

NOTE: "FAIR" INDICATES FEW OR NO CLOUDS BELOW 12,000 FEET WITH NO
SIGNIFICANT WEATHER AND/OR OBSTRUCTIONS TO VISIBILITY. WIND
SPEEDS ARE IN MILES-PER-HOUR.




USA.gov is the U.S. government's official web portal to all federal, state and local government web resources and services.